TimeEST,TemperatureF,Dew PointF,Humidity,Sea Level PressureIn,VisibilityMPH,Wind Direction,Wind SpeedMPH,Gust SpeedMPH,PrecipitationIn,Events,Conditions,WindDirDegrees,DateUTC
12:53 AM,27.0,17.1,66,30.18,10.0,Calm,Calm,-,N/A,,Clear,0,2013-11-15 05:53:00
1:53 AM,26.1,17.1,69,30.19,10.0,Calm,Calm,-,N/A,,Clear,0,2013-11-15 06:53:00
2:53 AM,25.0,19.0,78,30.19,10.0,Calm,Calm,-,N/A,,Clear,0,2013-11-15 07:53:00
3:53 AM,26.1,17.1,69,30.20,10.0,Calm,Calm,-,N/A,,Clear,0,2013-11-15 08:53:00
4:53 AM,25.0,17.1,72,30.20,10.0,Calm,Calm,-,N/A,,Clear,0,2013-11-15 09:53:00
5:53 AM,24.1,19.9,84,30.21,10.0,Calm,Calm,-,N/A,,Clear,0,2013-11-15 10:53:00
6:53 AM,24.1,18.0,77,30.22,10.0,SW,3.5,-,N/A,,Clear,230,2013-11-15 11:53:00
7:53 AM,26.1,19.9,78,30.23,10.0,SW,3.5,-,N/A,,Clear,220,2013-11-15 12:53:00
8:53 AM,32.0,24.1,73,30.24,10.0,Calm,Calm,-,N/A,,Clear,0,2013-11-15 13:53:00
9:53 AM,42.1,23.0,47,30.24,10.0,SSW,6.9,-,0.00,,Clear,210,2013-11-15 14:53:00
10:53 AM,48.9,21.9,35,30.22,10.0,SW,5.8,-,N/A,,Clear,230,2013-11-15 15:53:00
11:53 AM,53.1,21.9,30,30.20,10.0,SSW,5.8,-,N/A,,Clear,210,2013-11-15 16:53:00
12:53 PM,55.0,17.1,23,30.16,10.0,WSW,8.1,-,0.00,,Clear,240,2013-11-15 17:53:00
1:53 PM,55.0,19.0,24,30.17,10.0,SSW,5.8,-,N/A,,Clear,210,2013-11-15 18:53:00
2:53 PM,55.0,19.0,24,30.15,10.0,SW,8.1,-,0.00,,Clear,220,2013-11-15 19:53:00
3:53 PM,53.1,18.0,25,30.17,10.0,SW,8.1,-,N/A,,Clear,220,2013-11-15 20:53:00
4:53 PM,46.0,19.9,35,30.17,10.0,Calm,Calm,-,0.00,,Clear,0,2013-11-15 21:53:00
5:53 PM,42.1,21.0,43,30.19,10.0,Calm,Calm,-,N/A,,Clear,0,2013-11-15 22:53:00
6:53 PM,35.1,21.9,59,30.19,10.0,Calm,Calm,-,N/A,,Clear,0,2013-11-15 23:53:00
7:53 PM,35.1,23.0,61,30.21,10.0,Calm,Calm,-,N/A,,Clear,0,2013-11-16 00:53:00
8:53 PM,34.0,21.9,61,30.22,10.0,Calm,Calm,-,N/A,,Clear,0,2013-11-16 01:53:00
9:53 PM,30.9,23.0,72,30.22,10.0,Calm,Calm,-,N/A,,Clear,0,2013-11-16 02:53:00
10:53 PM,30.0,23.0,75,30.22,10.0,Calm,Calm,-,N/A,,Clear,0,2013-11-16 03:53:00
11:53 PM,32.0,25.0,75,30.24,10.0,WSW,3.5,-,N/A,,Scattered Clouds,250,2013-11-16 04:53:00